SL-14 DEB, 45316

Orbit data source: Space-Track

SL-14 DEB, 45316 is space debris in LEO originally from a launch on Thu, 15 Aug 1991 UTC launched from the Plesetsk Missile And Space Complex (PKMTR). Debris objects in space refer to the collection of defunct objects orbiting the Earth. Examples of debris include non-operational satellites, rocket bodies, and fragments generated from explosions, collisions, or faulty payload assembly.

Loading next visibility...
Identifier
45316, 1991-056BE
Orbit
LEO
Country
Flag of CISCIS
Related business
Manufacturer
Unknown
Mission
Spacecraft
Bus & Motor
Unknown
Mass
Unknown
Launch date (UTC)
1991-08-15 (35 years ago)
Launch vehicle
Unknown
Launch site
Plesetsk Missile And Space Complex (PKMTR)
Object type
Payload
Rocket body
Debris
Shape & HBR
Unknown shape, 0.2 m
Radar Cross Section
Medium (>0.1 m² and <1 m²)

Expand to show TLE details & history
Last TLE update: 11 hours ago

TLE from 11 hours ago
0 SL-14 DEB
1 45316U 91056BE  26238.24679823  .00001433  00000-0  27999-2 0  9991
2 45316  82.5922  61.3436 0105889 157.5198 203.0625 13.33358760316387
Epoch: 2026-08-26T05:55Z
TLE epoch observation values (Epoch: 2026-08-26T05:55:23.367Z)
Latitude
Longitude
-2.0063°
Altitude
1,210.284 km
Speed
7.214 km/s
True Right ascension
04h 05m 22s
True Declination
0° 00' 00"
Sunlit
Object was in daylight at epoch
Visualization orbit readout
Latitude
Unknown
Longitude
Unknown
Altitude
Unknown
Speed
Unknown
Apparent Right ascension
Unknown
Apparent Declination
Unknown
Sunlit
N/A
Visualization observer readout
Local Sidereal Time
08:07:45
Azimuth
Unknown
Elevation
Unknown
Doppler factor
Unknown
Orbital elements
Apogee altitude
1,210.858 km
Perigee altitude
1,051.824 km
Semi-major axis
7,509.478 km
Eccentricity
0.01059
Inclination
82.5922°
RAAN
61.3436°
Arg. of periapsis
157.5198°
True anomaly
202.5929°
Mean anomaly
203.0625°
Eccentric anomaly
202.82713°
Mean motion
3.33525 °/min
Orbital period
107.94 mins
BSTAR
0.0027999
Loading maneuver chart data...
Computing Atmospheric mass density...
Loading historical data...
Loading historical data...
Loading historical data...
Loading historical data...
Loading historical data...
Loading historical data...
Loading historical data...

Documentation

Showing up to 5 results
|